[[{"header":{"parameterUnit":"m.s-1","parameterCategory":1,"la1":30.2991,"la2":30.254,"lo1":-89.0895,"lo2":-89.0444,"dy":0.0017,"dx":0.0017,"nx":28,"ny":28,"refTime":"2025-07-25T21:00:00:Z","depth":0,"parameterNumber":2,"parameterNumberName":"U-component_of_WINDS"},"data":[0,0,0,0,0,0,0,0,0,0,0,0,0,0,0,0,0,0,0,0,0,0,0,0,0,0,0,0,0,0,0,0,0,0,0,0,0,0,0,0,0,0,0,0,0,0,0,0,0,0,0,0,0,0,0,0,0,0,-1.8646,-1.8648,0,-1.8847,-1.885,-1.8852,-1.8931,-1.8931,-1.893,-1.8929,-1.9142,-1.9148,-1.9154,0,0,0,0,0,0,0,0,0,0,0,0,0,-1.8336,-1.8341,-1.8646,-1.8648,-1.8651,-1.8847,-1.885,-1.8853,-1.8931,-1.8931,-1.893,-1.8929,-1.914,-1.9147,-1.9155,0,0,0,0,0,0,0,0,0,0,0,0,0,-1.8497,-1.8343,-1.8645,-1.8713,-1.8722,-1.8846,-1.885,-1.8853,-1.8931,-1.8931,-1.893,-1.8929,-1.9137,-1.9146,-1.9156,-1.9229,0,0,-1.9184,-1.9188,0,0,0,0,0,0,0,0,-1.8488,-1.8509,-1.8701,-1.8709,-1.8718,-1.8863,-1.8819,-1.898,-1.8932,-1.8852,-1.8929,-1.8929,-1.905,-1.9067,-1.9106,-1.9239,-1.9248,-1.9185,-1.919,-1.9194,-1.9197,0,0,0,0,0,0,0,-1.8477,-1.8501,-1.8726,-1.8704,-1.8714,-1.8736,-1.8758,-1.885,-1.8954,-1.8859,-1.8865,-1.8887,-1.9055,-1.9097,-1.9112,-1.9252,-1.9184,-1.9193,-1.9198,-1.9202,-1.9458,-1.9459,0,0,0,0,0,0,-1.8453,-1.8491,-1.8719,-1.8732,-1.8599,-1.8743,-1.8767,-1.8818,-1.8953,-1.8972,-1.8888,-1.889,-1.9082,-1.9101,-1.912,-1.9216,-1.9194,-1.9203,-1.9208,-1.9456,-1.9458,-1.9459,0,0,0,0,0,0,-1.8446,-1.8473,-1.8711,-1.8613,-1.8645,-1.8749,-1.8805,-1.8822,-1.8864,-1.8975,-1.8994,-1.8912,-1.9082,-1.9107,-1.9202,-1.9224,-1.9207,-1.9215,-1.9455,-1.9457,-1.9459,-1.9408,0,0,0,0,0,0,-1.8437,-1.847,-1.8497,-1.8613,-1.865,-1.8787,-1.8806,-1.8827,-1.8879,-1.8885,-1.9002,-1.9021,-1.9083,-1.9187,-1.9211,-1.9237,-1.9223,-1.9453,-1.9456,-1.9458,-1.9408,-1.9408,-1.9408,0,0,0,0,0,-1.8426,-1.8476,-1.8498,-1.8525,-1.8686,-1.8788,-1.881,-1.8879,-1.8881,-1.891,-1.8982,-1.9017,-1.9218,-1.9196,-1.9223,-1.9253,-1.9452,-1.9455,-1.9458,-1.9408,-1.9408,-1.9408,0,0,0,0,0,0,-1.8362,-1.8492,-1.8518,-1.8607,-1.8686,-1.8801,-1.884,-1.8876,-1.8957,-1.8959,-1.9043,-1.9069,-1.9157,-1.9215,-1.9188,-1.9332,-1.9338,-1.9346,-1.9291,-1.9292,-1.9292,-1.9276,-1.923,0,0,0,0,0,-1.8358,-1.8428,-1.8539,-1.8607,-1.8645,-1.8735,-1.8783,-1.8829,-1.8915,-1.8949,-1.9028,-1.9111,-1.9194,-1.9246,-1.9328,-1.9417,-1.9445,-1.9451,-1.9451,-1.945,-1.9456,-1.951,-1.9514,-1.9468,-1.9468,-1.9468,0,0,-1.8351,-1.8431,-1.847,-1.8596,-1.8662,-1.8735,-1.8763,-1.8839,-1.8895,-1.8962,-1.9055,-1.9116,-1.9215,-1.9308,-1.9353,-1.9359,-1.9475,-1.9454,-1.9452,-1.9459,-1.9513,-1.9517,-1.9521,-1.947,-1.947,-1.947,0,0,-1.8375,-1.8442,-1.8506,-1.8572,-1.8671,-1.8732,-1.8747,-1.8858,-1.89,-1.8995,-1.9047,-1.9117,-1.9256,-1.9325,-1.9378,-1.943,-1.9467,-1.9455,-1.9454,-1.9505,-1.9508,-1.9512,-1.9531,-1.9537,-1.9461,-1.9461,-1.9461,0,-1.8354,-1.8463,-1.8535,-1.8608,-1.8662,-1.8725,-1.8792,-1.8853,-1.8975,-1.9013,-1.9018,-1.9195,-1.9266,-1.9376,-1.9389,-1.943,-1.9452,-1.9442,-1.9502,-1.9506,-1.9511,-1.953,-1.9537,-1.9459,-1.9459,-1.9459,-1.9459,0,-1.8433,-1.8509,-1.8549,-1.8663,-1.8723,-1.8793,-1.8876,-1.8929,-1.8971,-1.9031,-1.9129,-1.9217,-1.9318,-1.9348,-1.939,-1.9465,-1.9466,-1.9485,-1.9492,-1.9511,-1.9531,-1.9539,-1.9456,-1.9457,-1.9457,-1.9458,0,0,-1.8422,-1.8575,-1.8588,-1.8642,-1.8757,-1.8818,-1.8892,-1.8989,-1.9033,-1.9116,-1.9181,-1.9299,-1.9317,-1.9378,-1.9429,-1.9474,-1.951,-1.9488,-1.9492,-1.9489,-1.96,-1.9584,-1.9591,-1.9535,-1.9537,-1.9539,-1.9592,0,-1.8462,-1.8593,-1.866,-1.8764,-1.8836,-1.8897,-1.8962,-1.9041,-1.91,-1.9172,-1.9239,-1.932,-1.9339,-1.9376,-1.9423,-1.9496,-1.9534,-1.9493,-1.9599,-1.9602,-1.9571,-1.9602,-1.9586,-1.9631,-1.96,-1.9601,-1.9602,0,-1.8525,-1.8605,-1.8715,-1.8823,-1.8856,-1.8912,-1.9008,-1.9075,-1.9167,-1.9207,-1.9275,-1.9325,-1.9408,-1.941,-1.9526,-1.9497,-1.9545,-1.9587,-1.9591,-1.9603,-1.9602,-1.9615,-1.9647,-1.9654,-1.9615,-1.9614,-1.9613,0,-1.8506,-1.8642,-1.8726,-1.8769,-1.8897,-1.8936,-1.8991,-1.9083,-1.9137,-1.9222,-1.9258,-1.9352,-1.9403,-1.9476,-1.9551,-1.9545,-1.9661,-1.9668,-1.9698,-1.9696,-1.9719,-1.9716,-1.9759,-1.975,-1.975,-1.975,-1.9749,0,-1.8543,-1.8608,-1.8719,-1.877,-1.8846,-1.8924,-1.8998,-1.9059,-1.9139,-1.9206,-1.9266,-1.9328,-1.9423,-1.9497,-1.9557,-1.9645,-1.9668,-1.9704,-1.9719,-1.9699,-1.9694,-1.9731,-1.973,-1.9751,-1.9751,-1.9751,-1.975,0,-1.8534,-1.861,-1.8706,-1.8819,-1.8849,-1.89,-1.8999,-1.9052,-1.9115,-1.9198,-1.9223,-1.9322,-1.9412,-1.9495,-1.9616,-1.9656,-1.9746,-1.9765,-1.9714,-1.9722,-1.9747,-1.9743,-1.9815,-1.9828,-1.9809,-1.9809,-1.9809,0,-1.8552,-1.8604,-1.8722,-1.877,-1.8823,-1.89,-1.8955,-1.9035,-1.9091,-1.9201,-1.9242,-1.9337,-1.9417,-1.956,-1.9644,-1.9738,-1.9759,-1.9778,-1.9774,-1.9752,-1.976,-1.9756,-1.9762,-1.9777,-1.9777,-1.9777,-1.9777,0,-1.8577,-1.8613,-1.8689,-1.8779,-1.8844,-1.8919,-1.8997,-1.9033,-1.9128,-1.9189,-1.9281,-1.9343,-1.9466,-1.956,-1.9664,-1.9724,-1.9767,-1.9777,-1.9789,-1.9768,-1.9737,-1.9755,-1.9712,-1.9775,-1.9775,-1.9775,-1.9775,-1.9776,-1.8584,-1.8632,-1.8723,-1.8807,-1.8873,-1.8945,-1.9001,-1.907,-1.9147,-1.9252,-1.9296,-1.939,-1.9484,-1.9626,-1.9687,-1.9763,-1.9772,-1.9789,-1.9793,-1.9796,-1.9792,-1.9724,-1.9783,-1.9783,-1.9783,-1.9783,-1.9783,0,-1.8612,-1.8673,-1.8749,-1.8855,-1.8922,-1.8954,-1.9042,-1.9096,-1.9178,-1.926,-1.9337,-1.9445,-1.9537,-1.9628,-1.9726,-1.977,-1.9792,-1.9793,-1.979,-1.9804,-1.9779,-1.9759,-1.9773,-1.9773,-1.9773,-1.9773,-1.9773,-1.9773,-1.8634,-1.8718,-1.8765,-1.8884,-1.8946,-1.9036,-1.9084,-1.9151,-1.9218,-1.9334,-1.9409,-1.9468,-1.9555,-1.966,-1.9747,-1.9772,-1.9805,-1.98,-1.9831,-1.9806,-1.9806,-1.9805,-1.9787,-1.9807,-1.9807,-1.9849,-1.985,-1.985]},{"header":{"parameterUnit":"m.s-1","parameterCategory":1,"la1":30.2991,"la2":30.254,"lo1":-89.0895,"lo2":-89.0444,"dy":0.0017,"dx":0.0017,"nx":28,"ny":28,"refTime":"2025-07-25T21:00:00:Z","depth":0,"parameterNumber":3,"parameterNumberName":"V-component_of_WINDS"},"data":[0,0,0,0,0,0,0,0,0,0,0,0,0,0,0,0,0,0,0,0,0,0,0,0,0,0,0,0,0,0,0,0,0,0,0,0,0,0,0,0,0,0,0,0,0,0,0,0,0,0,0,0,0,0,0,0,0,0,4.8837,4.8837,0,4.886,4.886,4.886,4.8858,4.8857,4.8857,4.8856,4.8881,4.8882,4.8883,0,0,0,0,0,0,0,0,0,0,0,0,0,4.8789,4.879,4.8837,4.8837,4.8837,4.886,4.886,4.8861,4.8858,4.8857,4.8857,4.8856,4.888,4.8882,4.8883,0,0,0,0,0,0,0,0,0,0,0,0,0,4.8811,4.8791,4.8837,4.8838,4.8839,4.886,4.886,4.8861,4.8858,4.8857,4.8857,4.8856,4.888,4.8881,4.8883,4.8903,0,0,4.8887,4.8888,0,0,0,0,0,0,0,0,4.881,4.8813,4.8838,4.8838,4.8839,4.8855,4.8852,4.8875,4.8858,4.8851,4.8856,4.8856,4.8873,4.8875,4.888,4.8905,4.8906,4.8888,4.8888,4.8889,4.889,0,0,0,0,0,0,0,4.8808,4.8812,4.8846,4.8838,4.8839,4.8838,4.8841,4.8857,4.8865,4.8851,4.8851,4.8854,4.8873,4.8879,4.8881,4.8906,4.8888,4.8889,4.889,4.889,4.8948,4.8948,0,0,0,0,0,0,4.8806,4.8811,4.8845,4.8847,4.8823,4.8839,4.8842,4.8851,4.8864,4.8866,4.8854,4.8854,4.8877,4.8879,4.8882,4.8906,4.8889,4.8891,4.8891,4.8947,4.8948,4.8949,0,0,0,0,0,0,4.8805,4.8809,4.8844,4.8829,4.8833,4.8841,4.885,4.8851,4.8857,4.8867,4.8868,4.8859,4.8876,4.888,4.8898,4.8907,4.8891,4.8893,4.8946,4.8947,4.8948,4.8955,0,0,0,0,0,0,4.8804,4.8809,4.8817,4.8829,4.8834,4.886,4.8851,4.8852,4.886,4.8859,4.8872,4.8873,4.8876,4.8896,4.8899,4.8909,4.8894,4.8946,4.8947,4.8948,4.8954,4.8956,4.8958,0,0,0,0,0,4.8802,4.8818,4.8817,4.8822,4.8844,4.886,4.8863,4.8866,4.8861,4.8868,4.8875,4.8873,4.8906,4.8898,4.8902,4.8911,4.8945,4.8947,4.8948,4.8953,4.8956,4.8958,0,0,0,0,0,0,4.8807,4.882,4.8819,4.8839,4.8849,4.886,4.887,4.8869,4.888,4.8879,4.8883,4.8886,4.8904,4.891,4.8901,4.8932,4.8925,4.8927,4.8927,4.893,4.8932,4.8929,4.8895,0,0,0,0,0,4.8811,4.8823,4.8833,4.885,4.8855,4.8862,4.8869,4.8871,4.8881,4.8885,4.8892,4.8902,4.8915,4.8923,4.8935,4.8955,4.8958,4.8964,4.8966,4.8968,4.8969,4.898,4.8983,4.8953,4.8953,4.8953,0,0,4.8818,4.8826,4.8834,4.8851,4.8859,4.8871,4.8865,4.8879,4.8888,4.8887,4.8904,4.891,4.8921,4.8941,4.895,4.8946,4.8978,4.897,4.8971,4.8971,4.8982,4.8985,4.8987,4.8954,4.8954,4.8954,0,0,4.8836,4.8845,4.8859,4.8867,4.8878,4.8883,4.8886,4.8898,4.8901,4.8919,4.8918,4.893,4.8951,4.8959,4.8966,4.8989,4.8987,4.8993,4.9002,4.9013,4.9015,4.9017,4.9024,4.9027,4.8995,4.8995,4.8995,0,4.8844,4.8863,4.8866,4.888,4.8887,4.8887,4.8902,4.8909,4.8924,4.8929,4.8926,4.8953,4.896,4.8981,4.8987,4.8993,4.8996,4.8991,4.9014,4.9016,4.9018,4.9025,4.9028,4.8995,4.8995,4.8995,4.8995,0,4.887,4.8883,4.8894,4.8908,4.8917,4.8931,4.8937,4.8945,4.8946,4.8951,4.8969,4.8979,4.8992,4.8998,4.8999,4.9019,4.9016,4.9013,4.9006,4.9022,4.9028,4.9031,4.8996,4.8996,4.8995,4.8995,0,0,4.8892,4.8908,4.8912,4.8918,4.8931,4.8941,4.8955,4.8969,4.8976,4.8986,4.8998,4.9016,4.9014,4.9022,4.9024,4.9034,4.905,4.903,4.903,4.9032,4.9071,4.9072,4.9075,4.905,4.905,4.9051,4.907,0,4.8911,4.8935,4.8939,4.8961,4.8973,4.8973,4.8985,4.8995,4.9,4.9011,4.9017,4.9029,4.9025,4.903,4.9039,4.9046,4.9058,4.9045,4.906,4.906,4.9055,4.9079,4.908,4.9098,4.9073,4.9073,4.9073,0,4.8936,4.8947,4.897,4.8981,4.8986,4.8997,4.9009,4.902,4.9031,4.9034,4.9043,4.9044,4.9059,4.9052,4.9072,4.9063,4.907,4.9074,4.9075,4.9075,4.9067,4.9079,4.9104,4.9106,4.9078,4.9077,4.9077,0,4.8948,4.8969,4.8985,4.899,4.9004,4.9012,4.9018,4.9028,4.9036,4.9047,4.9052,4.9065,4.9071,4.9082,4.9087,4.9081,4.9106,4.91,4.9109,4.9109,4.9113,4.9112,4.9138,4.912,4.912,4.912,4.9119,0,4.8969,4.8982,4.899,4.9,4.9015,4.902,4.9035,4.9041,4.905,4.9061,4.9062,4.9073,4.9079,4.9091,4.9095,4.9111,4.9114,4.9117,4.9117,4.9116,4.9115,4.9119,4.9118,4.912,4.912,4.912,4.912,0,4.8984,4.899,4.9007,4.9019,4.9022,4.9033,4.9043,4.9052,4.9057,4.9071,4.9075,4.9083,4.9097,4.9103,4.912,4.9123,4.914,4.9141,4.9136,4.9136,4.9145,4.9143,4.9173,4.9177,4.9157,4.9157,4.9157,0,4.8996,4.9006,4.9019,4.9026,4.9032,4.9044,4.9052,4.9057,4.9065,4.9078,4.9086,4.91,4.911,4.9132,4.914,4.9153,4.9153,4.9162,4.9155,4.9153,4.9152,4.915,4.9151,4.9163,4.9163,4.9163,4.9164,0,4.9016,4.9018,4.9029,4.9042,4.9051,4.9061,4.907,4.9076,4.9083,4.9092,4.9106,4.9114,4.9131,4.9144,4.9158,4.9165,4.9165,4.9166,4.9169,4.9166,4.9163,4.9164,4.9139,4.9165,4.9165,4.9165,4.9165,4.9165,4.9029,4.9038,4.9048,4.906,4.9068,4.9077,4.9086,4.9093,4.9104,4.9118,4.9121,4.9135,4.9146,4.9164,4.9171,4.9182,4.918,4.9184,4.9185,4.9186,4.9186,4.9162,4.9185,4.9185,4.9185,4.9185,4.9185,0,4.9048,4.9055,4.9066,4.9079,4.9089,4.9089,4.91,4.9108,4.912,4.913,4.914,4.9156,4.9169,4.9178,4.9191,4.9199,4.9199,4.9202,4.9201,4.9202,4.9187,4.9183,4.9201,4.9201,4.9201,4.9201,4.9201,4.9201,4.9059,4.9074,4.9078,4.9097,4.9103,4.9117,4.9123,4.9131,4.9139,4.9156,4.9166,4.9172,4.9182,4.9196,4.9208,4.921,4.9215,4.9217,4.9219,4.9205,4.9203,4.9202,4.9198,4.9218,4.9218,4.9233,4.9233,4.9233]}]]